Wind_Speed
19 20 19 19 17 16 15 14 14 14 14 12 11 11 12 11 11 11 11 12 11 10 8 7 5 6 4 4 3 6 6 6 6 6 7 10 10 9 5 9 9 7 8
22 21 22 20 17 17 16 15 15 15 15 15 15 14 14 14 13 12 13 13 12 12 11 11 9 8 8 8 7 5 5 6 5 6 6 6 8 9 9 8 9 9 8
27 26 25 23 21 20 19 19 17 15 13 14 16 16 16 14 13 14 14 14 13 13 13 12 13 12 11 11 9 7 7 7 5 5 6 7 8 9 10 10 9 11 11
36 31 28 26 25 24 23 21 20 18 17 14 14 14 13 14 16 15 15 16 16 14 14 13 15 14 14 14 13 11 10 11 9 7 8 8 9 9 9 10 11 13 12
30 35 28 29 28 27 26 26 24 22 20 18 18 18 16 17 16 16 17 17 16 16 16 17 17 17 16 16 14 15 15 15 13 12 11 11 12 12 12 13 13 11 14
20 35 31 32 31 32 30 28 26 24 23 23 22 20 21 21 19 19 18 17 20 19 18 19 18 18 19 18 17 16 18 18 18 16 14 13 13 14 13 14 16 15 10
26 29 33 36 33 33 34 29 27 27 26 25 24 24 24 23 22 22 21 20 25 25 22 22 21 19 17 17 18 18 19 20 19 18 17 17 16 17 18 18 19 19 18
25 20 27 24 28 31 35 31 30 28 27 26 27 28 28 29 28 27 23 24 22 27 26 24 25 25 24 23 22 21 22 24 24 22 22 22 22 22 22 23 23 24 22
23 20 22 23 19 26 27 25 26 27 23 29 31 31 31 31 30 29 28 26 25 25 25 28 30 30 29 27 25 27 28 27 27 28 28 27 26 26 26 27 27 30 31
25 24 24 29 26 23 21 23 25 24 28 20 21 27 32 32 30 31 33 35 34 32 33 35 38 36 35 35 34 31 31 32 32 31 29 29 30 30 31 31 32 33 35
24 22 26 28 29 29 27 26 25 26 27 25 26 34 27 29 32 32 31 36 38 39 42 42 41 41 38 37 36 36 37 37 36 36 37 37 37 38 37 37 37 38 38
31 28 33 35 33 31 31 31 31 31 30 28 28 31 33 32 33 31 34 33 36 35 42 42 44 44 41 41 43 43 44 44 44 44 45 46 45 42 43 42 41 41 42
38 38 35 37 39 39 38 37 36 36 36 36 36 33 28 30 36 41 37 37 41 38 40 41 40 41 44 47 47 44 46 48 49 50 50 47 43 41 41 41 41 43 43
43 45 45 46 45 47 47 45 44 42 42 43 42 40 40 36 36 36 33 38 43 45 46 46 43 43 45 44 45 47 48 47 45 46 47 44 40 36 34 35 34 35 35
46 46 47 46 48 49 50 50 50 49 48 47 46 45 43 42 40 38 42 49 46 40 39 41 47 51 48 50 49 47 45 40 37 35 36 38 39 38 37 38 38 39 39
49 49 49 48 47 49 52 53 52 51 48 46 47 49 48 46 42 40 42 40 40 49 51 54 52 54 55 57 53 48 44 41 39 40 40 38 40 43 44 46 46 47 49
50 52 55 53 48 48 49 47 49 44 45 44 47 47 46 46 47 45 43 41 42 44 43 44 43 38 35 33 31 35 34 36 38 41 51 49 45 47 49 52 52 56 56
41 41 41 40 47 50 45 50 42 44 46 44 44 46 46 47 44 43 39 41 44 44 44 45 47 44 41 39 40 41 42 42 43 45 48 49 52 52 54 54 52 51 53
38 41 42 44 43 41 42 48 51 43 49 50 44 40 41 43 44 42 42 46 44 45 43 42 40 41 43 44 46 47 50 50 49 52 53 53 54 56 57 58 58 58 57
38 40 40 40 39 41 43 44 44 47 44 36 41 47 42 44 42 45 52 53 55 55 51 51 50 49 49 50 51 53 53 53 53 54 57 57 58 59 58 58 58 59 60
34 37 38 37 37 37 36 39 41 44 50 54 45 53 50 46 47 44 55 49 54 61 60 61 61 59 59 58 57 57 58 61 63 65 63 62 62 62 62 63 64 64 64
28 35 37 37 36 37 38 36 35 37 37 36 39 47 43 39 42 45 55 51 52 55 60 64 63 65 66 65 62 61 60 62 65 65 64 62 62 64 64 63 64 64 66
34 29 30 30 32 35 37 37 38 38 37 38 37 37 36 37 37 41 46 46 42 41 39 40 39 39 39 38 37 41 45 48 50 52 54 56 58 61 63 65 67 68 70
32 30 29 30 32 32 34 36 38 39 41 43 44 44 44 43 41 41 42 42 42 41 42 43 46 48 49 49 50 52 54 55 57 59 62 63 64 65 66 66 66 66 68
35 35 33 32 33 35 36 37 38 39 40 42 44 45 45 45 45 44 44 44 43 44 46 47 49 50 51 52 53 55 55 56 58 59 61 61 61 60 61 61 63 66 69
34 35 36 37 38 37 38 41 44 45 45 46 48 47 46 47 49 49 49 48 47 46 46 45 45 47 49 50 52 54 54 54 54 55 55 57 58 57 58 60 62 65 69
Wind_Direction
209 207 207 203 207 206 210 208 207 208 206 206 206 230 239 237 244 250 257 254 252 254 257 258 254 266 285 298 287 289 326 345 359 356 341 350 23 25 346 3 20 19 24
211 217 215 210 208 212 212 217 225 223 220 217 214 220 238 249 248 249 254 255 259 256 255 263 265 251 256 253 253 270 289 320 348 316 336 345 352 353 348 347 350 2 16
215 213 222 216 209 213 216 219 223 226 233 235 230 227 228 234 250 254 253 260 263 264 259 260 268 273 267 260 259 268 278 295 300 309 324 334 333 331 324 329 335 346 347
237 216 217 221 220 216 219 225 230 228 225 230 243 247 246 245 243 247 256 259 262 263 264 260 254 253 262 272 282 285 284 283 287 295 297 303 303 314 312 322 330 338 330
251 208 214 227 224 222 224 227 227 228 231 230 233 235 239 242 246 254 256 262 263 263 264 264 267 271 273 276 276 282 282 282 283 282 287 295 301 305 312 313 312 318 316
231 231 218 218 231 230 222 227 234 234 233 232 233 236 241 244 245 247 254 261 264 265 267 266 268 272 276 277 282 284 284 287 288 290 290 288 295 302 298 298 299 300 295
237 229 225 224 224 231 231 222 228 234 238 240 242 238 244 248 250 250 254 257 265 262 260 259 262 271 271 275 276 277 280 279 278 283 289 293 291 286 286 288 290 294 292
239 208 214 221 245 231 228 225 227 236 240 243 247 248 245 246 248 255 255 256 262 259 255 256 261 266 270 268 267 269 272 275 280 283 283 284 287 285 286 287 285 285 286
223 217 218 231 225 220 221 218 219 236 246 249 246 246 243 245 250 253 256 253 256 260 255 260 262 260 264 266 271 275 275 272 269 272 278 281 280 279 282 283 284 288 291
241 249 247 255 256 247 243 240 243 254 255 253 264 254 254 250 244 250 253 258 258 253 252 256 259 260 264 266 265 266 271 272 274 275 274 274 277 280 281 280 280 280 282
264 258 246 249 252 253 254 255 252 252 257 253 246 262 272 267 259 247 256 258 262 255 259 258 257 259 261 264 272 270 267 269 273 273 272 273 276 278 279 279 278 278 281
256 255 251 246 247 246 247 251 255 260 261 267 266 267 274 266 264 258 255 254 257 255 265 269 261 256 262 265 269 267 273 274 273 275 274 274 274 276 276 279 281 278 280
259 257 250 248 250 250 254 253 258 261 263 262 263 265 272 261 263 260 259 260 255 254 264 272 267 265 266 268 264 262 268 273 274 274 276 278 276 274 273 273 274 276 277
256 254 252 251 250 248 250 251 255 259 262 262 263 264 265 271 274 266 264 262 260 262 267 266 263 274 268 263 267 269 271 273 272 273 269 269 271 269 267 269 270 271 273
255 254 254 253 255 254 256 255 257 261 262 264 264 265 268 271 269 265 256 259 262 264 251 256 263 270 261 264 265 263 262 259 256 254 256 261 266 266 267 269 272 275 275
256 257 257 256 256 255 255 256 258 261 262 262 263 264 266 264 263 262 261 266 259 253 259 262 261 254 254 253 253 250 247 249 253 257 259 264 267 268 271 271 269 272 272
258 260 257 257 256 258 259 263 260 263 261 261 259 259 263 266 265 268 266 265 261 256 263 252 240 251 258 253 259 258 259 263 266 269 267 262 268 266 269 273 276 275 276
256 260 262 261 261 258 257 249 259 253 262 262 261 258 265 268 265 262 263 266 268 261 259 258 259 261 262 260 258 258 261 262 268 272 273 276 274 271 275 276 276 277 278
261 259 257 257 262 261 263 261 260 260 261 255 262 262 256 257 261 255 265 257 262 259 264 263 264 265 265 266 266 265 268 268 270 272 275 277 275 274 276 279 280 280 280
261 259 259 258 258 258 263 264 257 255 251 246 247 248 252 265 260 266 259 249 251 255 256 258 259 261 263 264 268 271 272 272 274 278 279 278 277 278 279 280 281 281 284
260 261 259 257 256 258 258 261 266 265 261 262 261 259 267 262 257 264 258 249 262 258 259 262 261 262 263 265 267 267 271 273 273 276 275 276 277 279 280 281 282 284 284
269 264 263 263 263 260 261 262 263 265 267 272 279 275 277 279 267 260 255 255 258 257 257 257 261 261 261 264 266 266 269 274 274 275 273 273 276 277 278 278 279 279 280
276 274 267 265 263 262 263 265 267 267 266 266 264 261 260 262 267 276 260 271 264 263 265 267 274 278 276 274 275 277 275 273 273 275 275 275 276 276 276 277 278 279 281
272 266 264 270 267 265 265 263 263 263 263 262 261 261 262 260 259 260 262 263 268 271 271 270 269 268 270 270 270 269 269 270 271 272 273 276 279 281 282 283 284 286 287
264 266 268 263 263 261 263 265 266 266 264 263 261 260 260 261 263 264 264 263 262 262 262 264 266 269 271 271 271 271 274 276 278 279 280 281 282 285 287 288 288 289 289
261 259 257 259 261 262 262 264 266 267 268 268 266 265 265 264 262 261 261 262 262 262 263 265 268 271 273 274 275 275 276 279 281 283 284 285 286 287 289 290 291 291 293
Height
5924 5927 5928 5930 5935 5939 5940 5939 5940 5942 5943 5943 5947 5949 5949 5951 5952 5952 5954 5954 5954 5954 5954 5954 5953 5952 5953 5954 5955 5954 5952 5952 5951 5951 5950 5947 5946 5945 5940 5944 5943 5941 5939
5920 5924 5926 5927 5930 5935 5938 5939 5938 5938 5940 5941 5942 5945 5947 5949 5950 5951 5952 5951 5951 5951 5952 5952 5954 5954 5953 5954 5953 5952 5950 5949 5950 5950 5949 5947 5946 5945 5944 5944 5942 5940 5939
5916 5918 5923 5924 5925 5928 5932 5935 5937 5937 5937 5939 5940 5942 5943 5944 5946 5948 5948 5947 5947 5948 5949 5950 5951 5952 5952 5951 5950 5951 5949 5948 5949 5948 5946 5946 5945 5945 5945 5943 5942 5939 5938
5907 5911 5917 5920 5922 5924 5927 5929 5932 5933 5933 5934 5935 5936 5938 5939 5940 5940 5942 5943 5944 5946 5946 5947 5947 5948 5949 5949 5949 5949 5949 5947 5946 5944 5944 5944 5944 5944 5944 5943 5941 5939 5939
5901 5905 5910 5912 5916 5919 5922 5924 5925 5928 5930 5930 5931 5932 5934 5934 5935 5936 5937 5938 5940 5941 5943 5943 5943 5943 5943 5944 5944 5945 5945 5944 5942 5943 5943 5943 5943 5942 5941 5940 5939 5939 5936
5898 5900 5901 5905 5909 5911 5914 5918 5920 5922 5924 5925 5926 5929 5930 5930 5930 5931 5933 5935 5935 5937 5937 5938 5938 5938 5938 5939 5939 5939 5938 5938 5939 5939 5940 5940 5940 5940 5939 5938 5936 5936 5937
5889 5892 5895 5897 5900 5904 5906 5908 5911 5913 5916 5919 5921 5923 5925 5926 5926 5927 5929 5930 5930 5931 5931 5932 5932 5932 5933 5933 5935 5935 5935 5935 5935 5935 5936 5936 5936 5936 5935 5935 5933 5932 5931
5886 5883 5888 5887 5894 5896 5897 5899 5902 5905 5909 5911 5913 5915 5917 5918 5920 5922 5924 5926 5925 5925 5926 5927 5926 5927 5928 5928 5929 5930 5930 5930 5931 5931 5931 5932 5932 5931 5931 5930 5929 5928 5929
5881 5883 5883 5885 5888 5891 5894 5895 5897 5898 5901 5903 5904 5905 5907 5911 5912 5915 5917 5918 5920 5919 5919 5920 5920 5920 5921 5922 5923 5924 5924 5924 5925 5925 5925 5925 5925 5924 5924 5924 5924 5922 5921
5874 5878 5882 5884 5884 5886 5887 5891 5893 5894 5895 5896 5898 5898 5900 5902 5903 5906 5908 5911 5912 5913 5911 5911 5911 5913 5914 5915 5916 5917 5916 5916 5917 5917 5916 5915 5915 5916 5917 5917 5915 5913 5911
5871 5875 5877 5880 5882 5884 5886 5888 5889 5890 5890 5891 5891 5886 5886 5892 5895 5897 5900 5900 5900 5901 5902 5903 5905 5906 5907 5907 5907 5907 5906 5905 5904 5906 5906 5907 5907 5907 5906 5906 5906 5904 5902
5864 5869 5873 5875 5876 5877 5879 5880 5881 5883 5884 5884 5885 5885 5884 5885 5886 5887 5889 5891 5891 5891 5891 5892 5893 5895 5898 5898 5897 5896 5896 5896 5895 5894 5894 5895 5895 5895 5894 5894 5893 5891 5890
5856 5859 5861 5864 5867 5869 5871 5873 5874 5875 5875 5875 5877 5877 5877 5878 5878 5879 5880 5880 5881 5881 5881 5881 5882 5884 5885 5885 5884 5883 5883 5883 5884 5884 5883 5881 5882 5883 5882 5881 5880 5878 5877
5846 5848 5851 5854 5857 5860 5861 5863 5866 5867 5866 5866 5865 5866 5867 5868 5868 5869 5870 5869 5870 5870 5870 5869 5869 5871 5871 5871 5871 5871 5871 5871 5871 5871 5869 5869 5869 5869 5870 5870 5869 5867 5865
5832 5835 5838 5839 5843 5846 5848 5850 5851 5853 5855 5853 5854 5856 5856 5857 5857 5859 5860 5859 5859 5859 5858 5857 5858 5858 5859 5858 5859 5858 5858 5858 5858 5858 5858 5858 5857 5856 5857 5857 5857 5856 5855
5817 5819 5822 5824 5826 5829 5832 5833 5836 5838 5840 5841 5841 5841 5843 5844 5846 5847 5847 5847 5848 5847 5847 5846 5845 5845 5845 5844 5843 5844 5845 5846 5847 5847 5847 5847 5846 5846 5844 5844 5843 5843 5842
5802 5805 5808 5810 5813 5815 5818 5819 5821 5822 5824 5827 5828 5828 5829 5831 5832 5835 5834 5834 5834 5834 5834 5833 5832 5834 5835 5835 5835 5835 5834 5834 5834 5834 5835 5835 5834 5832 5832 5831 5829 5827 5826
5792 5793 5794 5796 5798 5801 5803 5804 5807 5808 5810 5813 5815 5816 5817 5817 5818 5821 5821 5820 5820 5819 5821 5821 5821 5820 5820 5821 5822 5822 5821 5821 5821 5821 5821 5820 5820 5819 5817 5817 5814 5812 5810
5781 5781 5782 5784 5785 5786 5788 5790 5792 5796 5796 5797 5801 5801 5802 5805 5806 5808 5807 5806 5806 5807 5807 5808 5808 5808 5809 5808 5808 5808 5808 5808 5808 5807 5806 5805 5804 5803 5801 5799 5797 5795 5793
5771 5770 5771 5772 5773 5773 5775 5776 5778 5781 5782 5783 5785 5786 5786 5791 5793 5793 5792 5792 5793 5793 5793 5793 5793 5794 5794 5794 5794 5793 5792 5792 5791 5790 5790 5788 5786 5785 5782 5780 5779 5777 5774
5758 5759 5760 5761 5761 5760 5761 5762 5763 5766 5767 5768 5769 5771 5772 5774 5776 5778 5777 5773 5776 5778 5777 5776 5777 5777 5778 5778 5778 5777 5776 5776 5774 5773 5772 5770 5768 5766 5763 5762 5760 5756 5754
5745 5747 5747 5747 5748 5749 5749 5750 5751 5752 5753 5753 5753 5755 5759 5760 5760 5760 5761 5759 5759 5759 5760 5759 5759 5759 5760 5761 5761 5760 5758 5757 5756 5755 5753 5751 5750 5748 5745 5742 5740 5736 5732
5733 5733 5734 5734 5735 5736 5736 5736 5737 5739 5740 5740 5740 5741 5742 5745 5745 5745 5745 5743 5742 5743 5743 5743 5741 5741 5743 5743 5744 5743 5742 5740 5738 5737 5736 5734 5731 5728 5725 5722 5718 5715 5712
5723 5722 5723 5724 5725 5725 5725 5724 5724 5726 5726 5727 5727 5727 5728 5729 5729 5729 5728 5727 5727 5728 5728 5727 5726 5726 5727 5729 5728 5727 5726 5724 5722 5720 5718 5716 5713 5710 5706 5702 5698 5693 5688
5711 5711 5712 5712 5712 5712 5712 5711 5712 5712 5714 5715 5715 5715 5715 5716 5716 5715 5715 5715 5716 5715 5715 5714 5714 5711 5710 5711 5710 5711 5710 5707 5704 5702 5699 5697 5693 5689 5685 5681 5677 5671 5667
5698 5698 5699 5700 5700 5700 5700 5700 5699 5699 5699 5698 5698 5699 5700 5701 5701 5701 5700 5700 5701 5701 5700 5699 5699 5696 5695 5694 5692 5692 5693 5689 5685 5683 5680 5677 5674 5671 5666 5661 5657 5652 5646